Ana Sayfa
METAR-TAF:

METAR-TAF

Havaalanları :

Tri-County Airport

Ahoskie, Kuzey Carolina, Amerika Birleşik Devletleri

Enlem: 36-17-51N, Boylam: 077-10-15W, yükseklik: 21 m

Güncel hava durumu gözlemi

Rapor saat 07:15 UTC de 12 dakika önce yapıldı.
Rüzgar güneybatıdan 3 kt
Sıcaklık 19°C
Nem 43%
Basınç 1013 hPa
Görüş mesafesi: 16.1 km
Açık gökyüzü

METAR: KASJ 300715Z AUTO 23003KT 10SM CLR 19/06 A2992 RMK AO2 T01890063

Saat: 03:27 (07:27 UTC)


TAF: eksik

4.000'den fazla havaalanı için hava durumu gözlemleri ve tahminleri (METAR ve TAF raporları).

Kullanılabilir istasyonlar harita üzerinde sarı ve kırmızı noktalarla gösterilir.

İstasyonun adını görmek için fareyi noktanın üzerinde gezdirin.

Sonrasında hava gözlem ve tahminlerini görmek için tıklayın.

Haritayı değiştirmek için: yaklaştırmak için siyah artı işaretli yeşil düğmeye ve uzaklaştırmak için de eksi işaretli düğmeye hızla tıklayın; bitişik haritalar için yeşil okları kullanın.


METAR-TAF: